Flag for Brazil Weather past 2 weeks in Campo Grande, Mato Grosso Do Sul, Brazil

Now
70 °F

Clear.


Feels Like: 70 °F
Forecast: 69 / 83 °F
Wind: 2 mph from Southeast

Location: Campo Grande Aeroporto

Current Time: Mar 1, 2015 at 3:24:08 AM

Latest Report: Mar 1, 2015 at 3:00 AM


Visibility: 10 mi

Pressure: 29.92 "Hg

Humidity: 100%

Dew point: 70 °F

Location of Campo GrandeLocation

Historic Weather in Campo Grande — Graph

°F

Campo Grande temperature yesterday

Maximum temperature yesterday: 86 °F (at 4:00 PM)
Minimum temperature yesterday: 68 °F (at 3:00 AM)
Average temperature yesterday: 75 °F

Past Weeks' High & Low Weather Summary

 TemperatureHumidityPressure
High93 °F (Feb 23, 2:00 PM)100% (Feb 16, 2:00 PM)30.07 "Hg (Feb 16, 2:00 PM)
Low34 °F (Feb 24, 1:00 AM)29% (Feb 20, 4:00 AM)29.71 "Hg (Feb 23, 6:00 AM)
Average75 °F81%29.94 "Hg
* Reported Feb 14 3:00 AM — Mar 1 2:00 AM, Campo Grande, Weather by CustomWeather, © 2015

Note: Actual official high and low records may vary slightly from our data, if they occured in-between our weather recording intervals... More about our weather records

Advertising

Campo Grande weather history for previous 24 hours

 ConditionsComfort  
Time TempWeatherWind HumidityBarometerVisibility
2:00 AM
Sun, Mar 1
70 °FClear.3 mph94%29.95 "Hg10 mi
1:00 AM70 °FClear.2 mph94%29.95 "Hg10 mi
12:00 AM70 °FClear.No wind100%29.95 "Hg10 mi
11:00 PM
Sat, Feb 28
70 °FPassing clouds.2 mph94%29.98 "HgN/A
10:00 PM72 °FPassing clouds.No wind94%29.98 "HgN/A
9:00 PM73 °FPassing clouds.No wind89%29.98 "HgN/A
8:00 PM73 °FPassing clouds.3 mph89%29.95 "HgN/A
7:00 PM73 °FThundershowers. Passing clouds.3 mph89%29.92 "HgN/A
6:00 PM77 °FThundershowers. Passing clouds.5 mph74%29.92 "HgN/A
5:00 PM82 °FThundershowers. Scattered clouds.8 mph62%29.92 "HgN/A
4:00 PM86 °FScattered clouds.7 mph52%29.92 "HgN/A
3:00 PM81 °FScattered clouds.5 mph66%29.92 "HgN/A
2:00 PM77 °FThundershowers. Scattered clouds.3 mph74%29.95 "HgN/A
1:00 PM72 °FThundershowers. Scattered clouds.7 mph94%29.98 "HgN/A
12:00 PM82 °FThundershowers. Partly sunny.5 mph70%29.98 "HgN/A
11:00 AM82 °FScattered showers. Partly sunny.6 mph62%N/AN/A
10:00 AM84 °FScattered clouds.5 mph55%30.01 "HgN/A
9:00 AM82 °FSunny.2 mph58%30.01 "Hg10 mi
8:00 AM79 °FSunny.7 mph65%29.98 "Hg10 mi
7:00 AM72 °FSunny.6 mph83%29.98 "Hg10 mi
6:00 AM68 °FSunny.5 mph88%29.95 "Hg10 mi
5:00 AM68 °FSunny.No wind88%29.95 "Hg10 mi
4:00 AM70 °FClear.6 mph88%29.92 "Hg10 mi
3:00 AM68 °FPassing clouds.5 mph94%29.92 "HgN/A
Weather by CustomWeather, © 2015

See weather overviewHow to use our weather pages